GW3789 Weather Reports


Display with metric or nautical units.
time (UTC)temp
F
wind
direction
speed
MPH
gust
MPH
rain 1hr
in
rain 24hr
in
rain mn
in
humidity
%
barometer
mb
20260509203502 56 257 0.0 2.0 0.00 0.00 0.00 61 1013.5
20260509203007 56 276 0.0 4.0 0.00 0.00 0.00 61 1013.5
20260509202504 56 284 1.0 4.0 0.00 0.00 0.00 61 1013.4
20260509202007 56 276 1.0 3.0 0.00 0.00 0.00 62 1013.4
20260509201510 56 285 2.0 3.0 0.00 0.00 0.00 61 1013.3
20260509201006 57 152 0.0 2.0 0.00 0.00 0.00 60 1013.2
20260509200507 57 124 0.0 5.0 0.00 0.00 0.00 59 1013.1
20260509200016 57 124 1.0 5.0 0.00 0.00 0.00 59 1013.0
20260509195508 57 141 3.0 5.0 0.00 0.00 0.00 59 1013.0
20260509195006 57 124 0.0 7.0 0.00 0.00 0.00 60 1012.8
20260509194519 57 137 2.0 7.0 0.00 0.00 0.00 60 1012.8
20260509194007 57 60 2.0 6.0 0.00 0.00 0.00 60 1012.6
20260509193513 57 101 2.0 6.0 0.00 0.00 0.00 61 1012.7
20260509193004 57 117 2.0 6.0 0.00 0.00 0.00 61 1012.6
20260509192503 58 124 2.0 5.0 0.00 0.00 0.00 61 1012.5
20260509192006 58 141 2.0 5.0 0.00 0.00 0.00 61 1012.6
20260509191509 58 132 2.0 4.0 0.00 0.00 0.00 62 1012.5
20260509191003 58 77 2.0 5.0 0.00 0.00 0.00 61 1012.5
20260509190506 58 133 2.0 6.0 0.00 0.00 0.00 62 1012.4
20260509190020 58 104 1.0 7.0 0.00 0.00 0.00 62 1012.4
20260509185508 58 119 3.0 7.0 0.00 0.00 0.00 62 1012.4
20260509185006 58 110 2.0 7.0 0.00 0.00 0.00 62 1012.5
20260509184525 59 142 1.0 3.0 0.00 0.00 0.00 63 1012.4
20260509184007 59 148 0.0 5.0 0.00 0.00 0.00 64 1012.4
20260509183508 59 115 2.0 5.0 0.00 0.00 0.00 63 1012.4
20260509183024 59 144 1.0 5.0 0.00 0.00 0.00 64 1012.3
20260509182507 59 128 1.0 3.0 0.00 0.00 0.00 64 1012.2
20260509182010 59 125 1.0 2.0 0.00 0.00 0.00 65 1012.2
20260509181525 60 122 1.0 2.0 0.00 0.00 0.00 64 1012.3
20260509181006 60 141 0.0 3.0 0.00 0.00 0.00 64 1012.3
20260509180503 60 135 1.0 3.0 0.00 0.00 0.00 63 1012.3
20260509180011 60 127 1.0 3.0 0.00 0.00 0.00 63 1012.3
20260509175503 60 136 1.0 7.0 0.00 0.00 0.00 63 1012.3
20260509175009 60 134 1.0 7.0 0.00 0.00 0.00 63 1012.3
20260509174516 60 115 1.0 4.0 0.00 0.00 0.00 64 1012.3
20260509174010 60 143 1.0 7.0 0.00 0.00 0.00 65 1012.2
20260509173506 61 131 2.0 7.0 0.00 0.00 0.00 63 1012.2
20260509173021 61 122 3.0 7.0 0.00 0.00 0.00 62 1012.1
20260509172511 61 157 3.0 6.0 0.00 0.00 0.00 63 1012.1
20260509172009 61 138 2.0 6.0 0.00 0.00 0.00 63 1012.1
20260509171535 61 149 2.0 5.0 0.00 0.00 0.00 65 1012.2
20260509171008 61 161 4.0 5.0 0.00 0.00 0.00 64 1012.1
20260509170509 62 112 2.0 6.0 0.00 0.00 0.00 64 1012.2
20260509170028 62 150 2.0 6.0 0.00 0.00 0.00 64 1012.3
20260509165506 62 90 2.0 6.0 0.00 0.00 0.00 65 1012.3
20260509165005 62 211 3.0 6.0 0.00 0.00 0.00 65 1012.4
20260509164509 62 139 1.0 7.0 0.00 0.00 0.00 63 1012.4
20260509164002 63 139 3.0 7.0 0.00 0.00 0.00 61 1012.3
20260509163507 63 212 1.0 6.0 0.00 0.00 0.00 63 1012.3
20260509163014 63 204 1.0 6.0 0.00 0.00 0.00 63 1012.3
20260509162508 63 126 2.0 5.0 0.00 0.00 0.00 62 1012.4
20260509162005 64 129 1.0 5.0 0.00 0.00 0.00 61 1012.4
20260509161519 64 134 2.0 5.0 0.00 0.00 0.00 61 1012.5
20260509161010 64 147 1.0 5.0 0.00 0.00 0.00 61 1012.6
20260509160506 64 110 1.0 7.0 0.00 0.00 0.00 64 1012.7
20260509160025 64 149 3.0 7.0 0.00 0.00 0.00 61 1012.7
20260509155509 64 199 2.0 6.0 0.00 0.00 0.00 62 1012.7
20260509155011 64 117 1.0 5.0 0.00 0.00 0.00 63 1012.7
20260509154507 64 127 2.0 5.0 0.00 0.00 0.00 61 1012.7
20260509154008 64 211 2.0 8.0 0.00 0.00 0.00 61 1012.7
20260509153505 64 118 1.0 9.0 0.00 0.00 0.00 63 1012.7
20260509153012 64 141 3.0 9.0 0.00 0.00 0.00 61 1012.8
20260509152503 64 88 3.0 8.0 0.00 0.00 0.00 62 1012.9
20260509152008 64 134 2.0 7.0 0.00 0.00 0.00 60 1012.9
20260509151503 65 127 2.0 4.0 0.00 0.00 0.00 60 1012.9
20260509151003 65 161 0.0 4.0 0.00 0.00 0.00 62 1013.0
20260509150502 64 226 1.0 7.0 0.00 0.00 0.00 62 1013.0
20260509150003 64 209 4.0 8.0 0.00 0.00 0.00 61 1013.0
20260509145505 64 100 4.0 8.0 0.00 0.00 0.00 60 1013.1
20260509145003 65 158 2.0 10.0 0.00 0.00 0.00 59 1013.1
20260509144502 65 145 2.0 10.0 0.00 0.00 0.00 60 1013.1
20260509144002 66 86 1.0 7.0 0.00 0.00 0.00 60 1013.1
20260509143505 65 300 2.0 8.0 0.00 0.00 0.00 60 1013.1
20260509143014 65 202 2.0 8.0 0.00 0.00 0.00 60 1013.1
20260509142505 65 326 2.0 7.0 0.00 0.00 0.00 58 1013.1
20260509142007 65 134 2.0 8.0 0.00 0.00 0.00 59 1013.1
20260509141521 65 117 3.0 8.0 0.00 0.00 0.00 59 1013.2
20260509141009 65 138 2.0 11.0 0.00 0.00 0.00 59 1013.2
20260509140510 65 138 2.0 11.0 0.00 0.00 0.00 59 1013.2
20260509140019 65 245 2.0 8.0 0.00 0.00 0.00 60 1013.2
20260509135503 65 210 3.0 8.0 0.00 0.00 0.00 61 1013.3
20260509135002 65 184 4.0 10.0 0.00 0.00 0.00 62 1013.3
20260509134503 65 195 4.0 10.0 0.00 0.00 0.00 59 1013.4
20260509134003 66 140 3.0 6.0 0.00 0.00 0.00 59 1013.4
20260509133503 66 142 2.0 6.0 0.00 0.00 0.00 61 1013.4
20260509133008 67 120 1.0 7.0 0.00 0.00 0.00 59 1013.3
20260509132503 67 20 2.0 7.0 0.00 0.00 0.00 58 1013.2
20260509132007 67 139 2.0 5.0 0.00 0.00 0.00 58 1013.3
20260509131518 66 94 1.0 6.0 0.00 0.00 0.00 60 1013.4
20260509131006 65 141 1.0 6.0 0.00 0.00 0.00 60 1013.4
20260509130506 65 136 1.0 6.0 0.00 0.00 0.00 59 1013.4
20260509130018 65 113 2.0 6.0 0.00 0.00 0.00 59 1013.5
20260509125509 65 205 3.0 6.0 0.00 0.00 0.00 59 1013.5
20260509125006 65 116 2.0 6.0 0.00 0.00 0.00 59 1013.4
20260509124522 65 166 1.0 4.0 0.00 0.00 0.00 62 1013.4
20260509124003 65 152 1.0 5.0 0.00 0.00 0.00 58 1013.4
20260509123502 65 82 1.0 5.0 0.00 0.00 0.00 60 1013.5
20260509123004 66 135 1.0 4.0 0.00 0.00 0.00 61 1013.6
20260509122503 65 150 1.0 4.0 0.00 0.00 0.00 61 1013.5
20260509122006 65 132 1.0 4.0 0.00 0.00 0.00 61 1013.5
20260509121518 65 283 1.0 3.0 0.00 0.00 0.00 61 1013.7
20260509121007 65 118 1.0 3.0 0.00 0.00 0.00 62 1013.7
20260509120503 64 139 0.0 3.0 0.00 0.00 0.00 62 1013.7
20260509120016 64 121 1.0 4.0 0.00 0.00 0.00 64 1013.7
20260509115505 64 264 1.0 4.0 0.00 0.00 0.00 62 1013.7
20260509115007 64 152 1.0 4.0 0.00 0.00 0.00 64 1013.7
20260509114517 64 278 0.0 4.0 0.00 0.00 0.00 64 1013.7
20260509114012 65 276 1.0 4.0 0.00 0.00 0.00 64 1013.7
20260509113509 65 269 1.0 4.0 0.00 0.00 0.00 64 1013.7
20260509113024 65 82 1.0 4.0 0.00 0.00 0.00 60 1013.6
20260509112510 65 162 0.0 4.0 0.00 0.00 0.00 61 1013.7
20260509112002 66 203 1.0 4.0 0.00 0.00 0.00 59 1013.7
20260509111508 66 112 1.0 4.0 0.00 0.00 0.00 60 1013.6
20260509111006 65 288 2.0 4.0 0.00 0.00 0.00 61 1013.7
20260509110502 66 287 1.0 6.0 0.00 0.00 0.00 61 1013.8
20260509110011 65 41 1.0 6.0 0.00 0.00 0.00 60 1013.9
20260509105504 65 270 2.0 6.0 0.00 0.00 0.00 60 1014.0
20260509105004 65 264 1.0 4.0 0.00 0.00 0.00 62 1014.1
20260509104528 66 288 1.0 4.0 0.00 0.00 0.00 62 1014.1
20260509104011 65 243 0.0 5.0 0.00 0.00 0.00 62 1014.0
20260509103507 65 68 1.0 5.0 0.00 0.00 0.00 57 1014.0
20260509103020 66 112 1.0 3.0 0.00 0.00 0.00 56 1014.1
20260509102510 66 269 1.0 4.0 0.00 0.00 0.00 62 1014.1
20260509102011 66 109 2.0 5.0 0.00 0.00 0.00 60 1014.0
20260509101522 67 138 2.0 5.0 0.00 0.00 0.00 58 1014.2
20260509101007 66 226 2.0 5.0 0.00 0.00 0.00 59 1014.1
20260509100507 66 141 1.0 5.0 0.00 0.00 0.00 58 1014.2
20260509100019 66 157 1.0 5.0 0.00 0.00 0.00 59 1014.1
20260509095503 65 302 1.0 3.0 0.00 0.00 0.00 58 1014.2
20260509095003 65 204 1.0 3.0 0.00 0.00 0.00 61 1014.3
20260509094518 64 86 1.0 6.0 0.00 0.00 0.00 64 1014.2
20260509094004 63 136 2.0 6.0 0.00 0.00 0.00 60 1014.1
20260509093506 62 336 1.0 4.0 0.00 0.00 0.00 64 1014.2
20260509093016 62 86 0.0 4.0 0.00 0.00 0.00 65 1014.2
20260509092507 62 100 0.0 4.0 0.00 0.00 0.00 64 1014.1
20260509092007 62 88 1.0 4.0 0.00 0.00 0.00 70 1014.1
20260509091521 60 289 2.0 3.0 0.00 0.00 0.00 67 1014.1
20260509091008 60 274 0.0 2.0 0.00 0.00 0.00 65 1014.1
20260509090511 61 309 1.0 2.0 0.00 0.00 0.00 63 1014.1
20260509090026 61 79 0.0 2.0 0.00 0.00 0.00 66 1014.0
20260509085509 60 94 0.0 2.0 0.00 0.00 0.00 66 1014.0
20260509085013 60 316 0.0 3.0 0.00 0.00 0.00 68 1014.1
20260509084531 59 26 1.0 3.0 0.00 0.00 0.00 68 1014.1
20260509084003 60 308 1.0 3.0 0.00 0.00 0.00 68 1014.1
20260509083504 61 335 1.0 3.0 0.00 0.00 0.00 63 1014.1
20260509083016 61 77 1.0 2.0 0.00 0.00 0.00 65 1014.1
20260509082510 61 350 1.0 2.0 0.00 0.00 0.00 61 1014.1
20260509082006 61 82 0.0 2.0 0.00 0.00 0.00 68 1014.1
20260509081521 62 79 1.0 2.0 0.00 0.00 0.00 70 1014.3
20260509081009 61 74 0.0 4.0 0.00 0.00 0.00 66 1014.3
20260509080509 61 106 1.0 4.0 0.00 0.00 0.00 66 1014.3
20260509080022 61 95 2.0 7.0 0.00 0.00 0.00 65 1014.4
20260509075510 61 188 2.0 7.0 0.00 0.00 0.00 61 1014.4
20260509075011 61 129 2.0 8.0 0.00 0.00 0.00 62 1014.4
20260509074524 60 131 1.0 8.0 0.00 0.00 0.00 66 1014.5
20260509074009 60 136 3.0 8.0 0.00 0.00 0.00 63 1014.5
20260509073508 59 113 3.0 7.0 0.00 0.00 0.00 64 1014.6
20260509073028 59 208 3.0 7.0 0.00 0.00 0.00 63 1014.8
20260509072507 59 144 1.0 4.0 0.00 0.00 0.00 65 1014.9
20260509072008 59 127 2.0 4.0 0.00 0.00 0.00 66 1014.9
20260509071517 59 114 2.0 5.0 0.00 0.00 0.00 66 1014.8
20260509071006 59 131 2.0 5.0 0.00 0.00 0.00 65 1014.8
20260509070507 59 153 2.0 10.0 0.00 0.00 0.00 64 1014.6
20260509070018 59 205 2.0 10.0 0.00 0.00 0.00 64 1014.8
20260509065512 59 158 2.0 5.0 0.00 0.00 0.00 64 1014.9
20260509065008 58 122 2.0 5.0 0.00 0.00 0.00 65 1015.1
20260509064505 58 155 2.0 5.0 0.00 0.00 0.00 66 1015.1
20260509064004 58 134 1.0 5.0 0.00 0.00 0.00 66 1015.0
20260509063506 57 102 2.0 5.0 0.00 0.00 0.00 66 1014.9
20260509063009 57 98 1.0 4.0 0.00 0.00 0.00 70 1015.0
20260509062507 56 83 1.0 3.0 0.00 0.00 0.00 70 1014.9
20260509062004 57 62 1.0 2.0 0.00 0.00 0.00 68 1015.0
20260509061512 57 101 0.0 2.0 0.00 0.00 0.00 69 1015.0
20260509061003 56 142 0.0 2.0 0.00 0.00 0.00 66 1015.0
20260509060507 56 145 0.0 1.0 0.00 0.00 0.00 68 1014.9
20260509060016 55 115 0.0 1.0 0.00 0.00 0.00 67 1014.8
20260509055506 54 115 0.0 1.0 0.00 0.00 0.00 69 1014.7
20260509055006 53 113 0.0 1.0 0.00 0.00 0.00 69 1014.6
20260509054507 53 113 0.0 1.0 0.00 0.00 0.00 70 1014.7
20260509054003 52 113 0.0 1.0 0.00 0.00 0.00 71 1014.7
20260509053504 52 113 0.0 1.0 0.00 0.00 0.00 74 1014.7
20260509053008 52 114 0.0 1.0 0.00 0.00 0.00 76 1014.6
20260509052504 50 114 0.0 1.0 0.00 0.00 0.00 77 1014.6
20260509052006 49 114 0.0 1.0 0.00 0.00 0.00 77 1014.6
20260509051515 49 80 0.0 1.0 0.00 0.00 0.00 77 1014.6
20260509051009 49 283 0.0 0.0 0.00 0.00 0.00 77 1014.6
20260509050508 49 283 0.0 1.0 0.00 0.00 0.00 77 1014.5
20260509050020 48 283 0.0 1.0 0.00 0.00 0.00 75 1014.5
20260509045505 48 283 0.0 1.0 0.00 0.00 0.00 75 1014.5
20260509045007 47 283 0.0 1.0 0.00 0.00 0.00 75 1014.5
20260509044520 47 285 0.0 1.0 0.00 0.00 0.00 76 1014.4
20260509044007 47 238 0.0 1.0 0.00 0.00 0.00 76 1014.3
20260509043510 47 136 0.0 1.0 0.00 0.00 0.00 77 1014.2
20260509043023 47 136 0.0 1.0 0.00 0.00 0.00 75 1014.1
20260509042503 48 136 0.0 1.0 0.00 0.00 0.00 75 1014.1
20260509042002 48 136 0.0 1.0 0.00 0.00 0.00 72 1014.1
20260509041507 50 127 0.0 2.0 0.00 0.00 0.00 71 1014.0
20260509041004 51 122 0.0 2.0 0.00 0.00 0.00 68 1014.0
20260509040503 51 123 0.0 2.0 0.00 0.00 0.00 67 1014.0
20260509040010 51 193 0.0 2.0 0.00 0.00 0.00 67 1014.0
20260509035507 51 148 0.0 2.0 0.00 0.00 0.00 67 1014.0
20260509035004 51 254 0.0 2.0 0.00 0.00 0.00 67 1014.0
20260509034516 51 163 0.0 2.0 0.00 0.00 0.00 66 1014.1
20260509034010 51 167 0.0 2.0 0.00 0.00 0.00 66 1014.3
20260509033505 51 138 0.0 2.0 0.00 0.00 0.00 66 1014.2
20260509033020 51 261 0.0 2.0 0.00 0.00 0.00 66 1014.3
20260509032507 51 264 1.0 2.0 0.00 0.00 0.00 65 1014.3
20260509032010 50 130 0.0 2.0 0.00 0.00 0.00 66 1014.3
20260509031525 50 255 0.0 2.0 0.00 0.00 0.00 67 1014.4
20260509031013 50 158 0.0 1.0 0.00 0.00 0.00 67 1014.3
20260509030504 51 119 0.0 1.0 0.00 0.00 0.00 66 1014.3
20260509030008 51 159 0.0 2.0 0.00 0.00 0.00 64 1014.3
20260509025504 51 137 0.0 2.0 0.00 0.00 0.00 64 1014.4
20260509025007 51 141 0.0 2.0 0.00 0.00 0.00 64 1014.4
20260509024510 51 141 0.0 3.0 0.00 0.00 0.00 64 1014.4
20260509024005 52 117 0.0 3.0 0.00 0.00 0.00 63 1014.4
20260509023508 52 127 0.0 2.0 0.00 0.00 0.00 64 1014.4
20260509023018 51 122 1.0 5.0 0.00 0.00 0.00 65 1014.3
20260509022505 51 131 1.0 5.0 0.00 0.00 0.00 65 1014.3
20260509022006 51 121 0.0 2.0 0.00 0.00 0.00 66 1014.4
20260509021521 50 124 0.0 1.0 0.00 0.00 0.00 67 1014.4
20260509021009 50 124 0.0 1.0 0.00 0.00 0.00 66 1014.4
20260509020511 50 319 0.0 1.0 0.00 0.00 0.00 66 1014.5
20260509020025 50 133 0.0 2.0 0.00 0.00 0.00 66 1014.5
20260509015510 51 120 0.0 2.0 0.00 0.00 0.00 65 1014.4
20260509015012 50 146 0.0 1.0 0.00 0.00 0.00 65 1014.4
20260509014510 50 132 0.0 1.0 0.00 0.00 0.00 65 1014.4
20260509014002 51 150 0.0 1.0 0.00 0.00 0.00 65 1014.5
20260509013506 51 188 0.0 4.0 0.00 0.00 0.00 64 1014.5
20260509013033 51 148 0.0 4.0 0.00 0.00 0.00 64 1014.5
20260509012506 51 140 0.0 3.0 0.00 0.00 0.00 64 1014.6
20260509012007 51 124 1.0 5.0 0.00 0.00 0.00 64 1014.6
20260509011519 51 105 2.0 5.0 0.00 0.00 0.00 64 1014.7
20260509011005 51 136 0.0 3.0 0.00 0.00 0.00 65 1014.9
20260509010506 51 240 1.0 3.0 0.00 0.00 0.00 65 1014.8
20260509010022 51 140 0.0 2.0 0.00 0.00 0.00 66 1014.9
20260509005508 51 115 0.0 2.0 0.00 0.00 0.00 66 1014.9
20260509005011 51 104 0.0 2.0 0.00 0.00 0.00 67 1015.0
20260509004526 51 138 0.0 1.0 0.00 0.00 0.00 67 1015.1
20260509004009 51 146 0.0 2.0 0.00 0.00 0.00 67 1015.1
20260509003515 50 144 0.0 3.0 0.00 0.00 0.00 68 1015.1
20260509003027 50 178 0.0 3.0 0.00 0.00 0.00 69 1015.1
20260509002505 49 136 0.0 1.0 0.00 0.00 0.00 72 1015.1
20260509002002 48 148 0.0 1.0 0.00 0.00 0.00 75 1015.1
20260509001516 48 162 0.0 1.0 0.00 0.00 0.00 80 1015.2
20260509001008 48 166 0.0 0.0 0.00 0.00 0.00 81 1015.1
20260509000505 49 167 0.0 0.0 0.00 0.00 0.00 80 1015.1
20260509000020 49 167 0.0 1.0 0.00 0.00 0.00 78 1015.1
20260508235502 50 254 0.0 1.0 0.00 0.00 0.00 75 1015.1
20260508235004 51 153 0.0 1.0 0.00 0.00 0.00 75 1015.1
20260508234506 51 153 0.0 1.0 0.00 0.00 0.00 69 1015.1
20260508234003 51 116 0.0 1.0 0.00 0.00 0.00 69 1015.1
20260508233503 52 116 0.0 2.0 0.00 0.00 0.00 70 1015.1
20260508233008 52 99 0.0 2.0 0.00 0.00 0.00 68 1015.1
20260508232502 53 130 0.0 3.0 0.00 0.00 0.00 65 1015.0
20260508232006 53 122 1.0 3.0 0.00 0.00 0.00 63 1014.9
20260508231505 53 89 1.0 3.0 0.00 0.00 0.00 63 1015.0
20260508231004 52 134 1.0 2.0 0.00 0.00 0.00 64 1015.0
20260508230503 52 111 0.0 1.0 0.00 0.00 0.00 65 1015.0
20260508230017 52 137 0.0 1.0 0.00 0.00 0.00 66 1015.1
20260508225503 52 137 0.0 1.0 0.00 0.00 0.00 66 1015.1
20260508225004 52 121 0.0 1.0 0.00 0.00 0.00 67 1015.1
20260508224510 52 121 0.0 0.0 0.00 0.00 0.00 67 1015.1
20260508224003 53 120 0.0 1.0 0.00 0.00 0.00 65 1015.1
20260508223506 53 120 0.0 1.0 0.00 0.00 0.00 59 1015.1
20260508223012 53 117 0.0 2.0 0.00 0.00 0.00 59 1015.1
20260508222507 53 125 0.0 3.0 0.00 0.00 0.00 59 1015.2
20260508222005 53 178 0.0 3.0 0.00 0.00 0.00 59 1015.2
20260508221506 53 129 0.0 2.0 0.00 0.00 0.00 59 1015.2
20260508221003 53 148 0.0 2.0 0.00 0.00 0.00 59 1015.1
20260508220504 53 123 1.0 2.0 0.00 0.00 0.00 59 1015.2
20260508220012 53 149 0.0 2.0 0.00 0.00 0.00 60 1015.2
20260508215504 52 179 0.0 2.0 0.00 0.00 0.00 61 1015.2
20260508215004 52 167 0.0 1.0 0.00 0.00 0.00 62 1015.3
20260508214512 51 233 0.0 1.0 0.00 0.00 0.00 64 1015.3
20260508214007 52 131 0.0 1.0 0.00 0.00 0.00 64 1015.3
20260508213503 52 130 0.0 0.0 0.00 0.00 0.00 62 1015.3
20260508213008 53 130 0.0 0.0 0.00 0.00 0.00 61 1015.3
20260508212503 54 130 0.0 1.0 0.00 0.00 0.00 60 1015.2
20260508212004 54 129 0.0 2.0 0.00 0.00 0.00 57 1015.1
20260508211509 55 148 0.0 3.0 0.00 0.00 0.00 56 1015.1
20260508211004 55 143 1.0 3.0 0.00 0.00 0.00 55 1015.1
20260508210506 55 137 1.0 3.0 0.00 0.00 0.00 55 1015.1
20260508210010 55 130 1.0 3.0 0.00 0.00 0.00 55 1015.1
20260508205504 55 149 1.0 3.0 0.00 0.00 0.00 56 1015.1
20260508205005 55 139 1.0 3.0 0.00 0.00 0.00 56 1015.1
20260508204517 55 131 1.0 3.0 0.00 0.00 0.00 57 1015.1
20260508204004 55 153 1.0 3.0 0.00 0.00 0.00 58 1015.1